When you browse on this site, cookies collect data to enhance your experience and personalize the content and advertising you see.
Visit our Privacy Policy to learn more. By continuing to use the site, you agree to this use of cookies and data.
  • In Latvia
  • List of Countries
  • For 7 days
  • Water Temperature
  • Satellite Maps
  • Weather Map
  • Weather Widgets
  • user-avatar
    Login

    Hourly Weather Domanovo

    Today, 22 February, Friday

    Time Temperature Precipitation Wind Pressure Humidity
    00:00 -15°C° 0.2 mm 8 mps 744 mmHg 86%
    01:00 -15°C° 0.1 mm 8 mps 744 mmHg 85%
    02:00 -16°C° 0.1 mm 8 mps 745 mmHg 84%
    03:00 -16°C° 0 mm 8 mps 745 mmHg 84%
    04:00 -16°C° 0.1 mm 8 mps 746 mmHg 84%
    05:00 -16°C° 0.1 mm 8 mps 746 mmHg 83%
    06:00 -17°C° 0.1 mm 8 mps 747 mmHg 83%
    07:00 -17°C° 0.1 mm 8 mps 748 mmHg 83%
    08:00 -17°C° 0.1 mm 8 mps 748 mmHg 83%
    09:00 -17°C° 0.1 mm 8 mps 749 mmHg 83%
    10:00 -16°C° 0.1 mm 9 mps 750 mmHg 82%
    11:00 -16°C° 0.1 mm 9 mps 751 mmHg 81%
    12:00 -15°C° 0.1 mm 9 mps 752 mmHg 79%
    13:00 -15°C° 0 mm 9 mps 753 mmHg 77%
    14:00 -13°C° 0 mm 8 mps 753 mmHg 75%
    15:00 -13°C° 0 mm 8 mps 754 mmHg 73%
    16:00 -13°C° 0 mm 8 mps 755 mmHg 74%
    17:00 -14°C° 0 mm 7 mps 756 mmHg 76%
    18:00 -14°C° 0 mm 6 mps 757 mmHg 77%
    19:00 -14°C° 0 mm 6 mps 758 mmHg 79%
    20:00 -15°C° 0 mm 6 mps 758 mmHg 81%
    21:00 -15°C° 0 mm 6 mps 759 mmHg 84%
    22:00 -14°C° 0 mm 5 mps 760 mmHg 86%
    23:00 -14°C° 0 mm 5 mps 760 mmHg 88%

    Tomorrow, 23 February, Saturday

    Time Temperature Precipitation Wind Pressure Humidity
    00:00 -15°C° 0 mm 4 mps 761 mmHg 91%
    01:00 -15°C° 0 mm 4 mps 761 mmHg 92%
    02:00 -15°C° 0 mm 4 mps 762 mmHg 93%
    03:00 -14°C° 0 mm 3 mps 762 mmHg 94%
    04:00 -16°C° 0 mm 3 mps 762 mmHg 93%
    05:00 -17°C° 0 mm 3 mps 763 mmHg 93%
    06:00 -18°C° 0 mm 2 mps 763 mmHg 93%
    07:00 -18°C° 0 mm 2 mps 763 mmHg 92%
    08:00 -17°C° 0 mm 2 mps 763 mmHg 91%
    09:00 -17°C° 0 mm 2 mps 762 mmHg 90%
    10:00 -16°C° 0 mm 3 mps 762 mmHg 88%
    11:00 -14°C° 0 mm 3 mps 761 mmHg 86%
    12:00 -12°C° 0 mm 3 mps 761 mmHg 84%
    13:00 -11°C° 0 mm 4 mps 760 mmHg 83%
    14:00 -10°C° 0 mm 4 mps 759 mmHg 81%
    15:00 -10°C° 0 mm 5 mps 758 mmHg 80%
    16:00 -10°C° 0.5 mm 5 mps 758 mmHg 84%
    17:00 -10°C° 0.5 mm 5 mps 757 mmHg 89%
    18:00 -10°C° 0.5 mm 5 mps 756 mmHg 93%
    19:00 -10°C° 0.4 mm 5 mps 755 mmHg 93%
    20:00 -8°C° 0.4 mm 5 mps 754 mmHg 93%
    21:00 -8°C° 0.4 mm 5 mps 753 mmHg 93%
    22:00 -7°C° 0.4 mm 4 mps 753 mmHg 93%
    23:00 -7°C° 0.4 mm 4 mps 753 mmHg 94%

    Day after tomorrow, 24 February, Sunday

    Time Temperature Precipitation Wind Pressure Humidity
    00:00 -5°C° 0.4 mm 3 mps 752 mmHg 95%
    01:00 -4°C° 0.1 mm 3 mps 752 mmHg 95%
    02:00 -1°C° 0.1 mm 3 mps 752 mmHg 96%
    03:00 0°C° 0.1 mm 3 mps 752 mmHg 96%
    04:00 -1°C° 0.1 mm 4 mps 752 mmHg 96%
    05:00 -1°C° 0.1 mm 4 mps 752 mmHg 96%
    06:00 -1°C° 0.1 mm 4 mps 752 mmHg 96%
    07:00 -1°C° 0.2 mm 4 mps 752 mmHg 97%
    08:00 -1°C° 0.2 mm 4 mps 753 mmHg 97%
    09:00 -1°C° 0.2 mm 4 mps 753 mmHg 98%
    10:00 -1°C° 0.1 mm 4 mps 753 mmHg 98%
    11:00 -1°C° 0.1 mm 4 mps 753 mmHg 99%
    12:00 -1°C° 0.1 mm 4 mps 754 mmHg 99%
    13:00 -1°C° 0 mm 4 mps 754 mmHg 99%
    14:00 -1°C° 0 mm 4 mps 754 mmHg 99%
    15:00 -1°C° 0 mm 4 mps 754 mmHg 99%
    16:00 0°C° 0 mm 3 mps 754 mmHg 98%
    17:00 0°C° 0 mm 3 mps 754 mmHg 97%
    18:00 0°C° 0 mm 3 mps 755 mmHg 96%
    19:00 +1°C° 0 mm 2 mps 755 mmHg 96%
    20:00 +1°C° 0 mm 2 mps 755 mmHg 96%
    21:00 -1°C° 0 mm 2 mps 755 mmHg 96%
    22:00 -1°C° 0 mm 2 mps 754 mmHg 96%
    23:00 -1°C° 0 mm 3 mps 754 mmHg 96%

    25 February, Monday

    Time Temperature Precipitation Wind Pressure Humidity
    00:00 0°C° 0 mm 3 mps 754 mmHg 96%
    01:00 0°C° 0 mm 3 mps 753 mmHg 95%
    02:00 -1°C° 0 mm 4 mps 752 mmHg 95%
    03:00 -1°C° 0 mm 5 mps 752 mmHg 95%
    04:00 -1°C° 0.2 mm 5 mps 751 mmHg 94%
    05:00 -1°C° 0.2 mm 5 mps 750 mmHg 93%
    06:00 -2°C° 0.2 mm 6 mps 750 mmHg 93%
    07:00 -2°C° 0 mm 6 mps 749 mmHg 92%
    08:00 -1°C° 0 mm 6 mps 749 mmHg 92%
    09:00 -1°C° 0 mm 6 mps 749 mmHg 91%
    10:00 -1°C° 0 mm 6 mps 749 mmHg 92%
    11:00 -1°C° 0 mm 6 mps 749 mmHg 93%
    12:00 -1°C° 0 mm 6 mps 750 mmHg 94%
    13:00 -2°C° 0.1 mm 6 mps 749 mmHg 92%
    14:00 -2°C° 0.1 mm 6 mps 749 mmHg 89%
    15:00 -2°C° 0.1 mm 6 mps 749 mmHg 86%
    16:00 -3°C° 0 mm 6 mps 749 mmHg 86%
    17:00 -2°C° 0 mm 5 mps 749 mmHg 86%
    18:00 -4°C° 0 mm 5 mps 749 mmHg 87%
    19:00 -4°C° 0 mm 5 mps 749 mmHg 87%
    20:00 -3°C° 0 mm 6 mps 749 mmHg 86%
    21:00 -3°C° 0 mm 6 mps 748 mmHg 86%
    22:00 -3°C° 0 mm 6 mps 748 mmHg 87%
    23:00 -2°C° 0 mm 5 mps 747 mmHg 87%

    26 February, Tuesday

    Time Temperature Precipitation Wind Pressure Humidity
    00:00 -4°C° 0 mm 5 mps 747 mmHg 88%
    01:00 -4°C° 0 mm 5 mps 746 mmHg 89%
    02:00 -4°C° 0 mm 5 mps 745 mmHg 90%
    03:00 -3°C° 0 mm 4 mps 745 mmHg 91%
    04:00 -3°C° 0.1 mm 4 mps 744 mmHg 92%
    05:00 -2°C° 0.1 mm 3 mps 743 mmHg 94%
    06:00 -2°C° 0.1 mm 3 mps 741 mmHg 95%
    07:00 -2°C° 0.3 mm 2 mps 741 mmHg 96%
    08:00 0°C° 0.3 mm 1 mps 740 mmHg 97%
    09:00 0°C° 0.3 mm 1 mps 739 mmHg 97%
    10:00 0°C° 0.1 mm 1 mps 739 mmHg 98%
    11:00 +1°C° 0.1 mm 1 mps 739 mmHg 98%
    12:00 -1°C° 0.1 mm 2 mps 739 mmHg 99%
    13:00 -1°C° 0.1 mm 2 mps 739 mmHg 96%
    14:00 -1°C° 0.1 mm 3 mps 739 mmHg 93%
    15:00 -1°C° 0.1 mm 3 mps 740 mmHg 90%
    16:00 -2°C° 0 mm 4 mps 740 mmHg 89%
    17:00 -3°C° 0 mm 4 mps 741 mmHg 88%
    18:00 -4°C° 0 mm 5 mps 741 mmHg 87%
    19:00 -5°C° 0 mm 5 mps 742 mmHg 86%
    20:00 -6°C° 0 mm 5 mps 743 mmHg 85%
    21:00 -6°C° 0 mm 5 mps 743 mmHg 85%
    22:00 -7°C° 0 mm 5 mps 744 mmHg 84%
    23:00 -10°C° 0 mm 5 mps 744 mmHg 84%

    27 February, Wednesday

    Time Temperature Precipitation Wind Pressure Humidity
    00:00 -11°C° 0 mm 5 mps 745 mmHg 83%
    01:00 -12°C° 0 mm 5 mps 745 mmHg 84%
    02:00 -14°C° 0 mm 5 mps 746 mmHg 84%
    03:00 -15°C° 0 mm 5 mps 746 mmHg 85%
    04:00 -17°C° 0 mm 5 mps 747 mmHg 84%
    05:00 -17°C° 0 mm 5 mps 747 mmHg 84%
    06:00 -17°C° 0 mm 4 mps 748 mmHg 84%
    07:00 -17°C° 0 mm 4 mps 748 mmHg 83%
    08:00 -17°C° 0 mm 4 mps 748 mmHg 82%
    09:00 -16°C° 0 mm 4 mps 749 mmHg 81%
    10:00 -15°C° 0 mm 4 mps 749 mmHg 79%
    11:00 -13°C° 0 mm 3 mps 748 mmHg 78%
    12:00 -12°C° 0 mm 3 mps 748 mmHg 76%
    13:00 -10°C° 0 mm 3 mps 747 mmHg 78%
    14:00 -9°C° 0 mm 3 mps 747 mmHg 80%
    15:00 -7°C° 0 mm 2 mps 746 mmHg 82%
    16:00 -8°C° 0 mm 3 mps 745 mmHg 84%
    17:00 -7°C° 0 mm 3 mps 744 mmHg 86%
    18:00 -8°C° 0 mm 4 mps 743 mmHg 89%
    19:00 -7°C° 0.2 mm 4 mps 741 mmHg 89%
    20:00 -6°C° 0.2 mm 5 mps 740 mmHg 89%
    21:00 -5°C° 0.2 mm 6 mps 739 mmHg 90%
    22:00 -4°C° 0.1 mm 5 mps 738 mmHg 91%
    23:00 -4°C° 0.1 mm 5 mps 736 mmHg 91%
    Show more